Time,TemperatureF,DewpointF,PressureIn,WindDirection,WindDirectionDegrees,WindSpeedMPH,WindSpeedGustMPH,Humidity,HourlyPrecipIn,Conditions,Clouds,dailyrainin,SoftwareType,DateUTC
2013-02-15 00:07:00,40.9,28.0,30.06,North,11,8.0,12.0,60,0.00,,,0.00,weatherlink.com 1.10,2013-02-15 06:07:00,
2013-02-15 00:23:00,40.6,28.0,30.07,NW,321,7.0,11.0,60,0.00,,,0.00,weatherlink.com 1.10,2013-02-15 06:23:00,
2013-02-15 00:37:00,40.1,27.0,30.07,NNW,339,5.0,11.0,61,0.00,,,0.00,weatherlink.com 1.10,2013-02-15 06:37:00,
2013-02-15 00:52:00,39.8,28.0,30.07,NNW,340,2.0,7.0,62,0.00,,,0.00,weatherlink.com 1.10,2013-02-15 06:52:00,
2013-02-15 01:07:00,39.1,28.0,30.07,NW,317,2.0,6.0,64,0.00,,,0.00,weatherlink.com 1.10,2013-02-15 07:07:00,
2013-02-15 01:22:00,38.3,28.0,30.08,NW,325,2.0,5.0,67,0.00,,,0.00,weatherlink.com 1.10,2013-02-15 07:22:00,
2013-02-15 01:37:00,37.6,28.0,30.09,NW,316,5.0,7.0,68,0.00,,,0.00,weatherlink.com 1.10,2013-02-15 07:37:00,
2013-02-15 01:53:00,37.3,28.0,30.09,NNW,347,5.0,11.0,69,0.00,,,0.00,weatherlink.com 1.10,2013-02-15 07:53:00,
2013-02-15 02:08:00,36.8,29.0,30.10,NW,323,9.0,15.0,72,0.00,,,0.00,weatherlink.com 1.10,2013-02-15 08:08:00,
2013-02-15 02:24:00,35.7,29.0,30.10,NE,36,9.0,14.0,75,0.00,,,0.00,weatherlink.com 1.10,2013-02-15 08:24:00,
2013-02-15 02:38:00,35.5,29.0,30.11,NNW,335,7.0,13.0,76,0.00,,,0.00,weatherlink.com 1.10,2013-02-15 08:38:00,
2013-02-15 02:53:00,34.9,28.0,30.11,North,359,5.0,14.0,77,0.00,,,0.00,weatherlink.com 1.10,2013-02-15 08:53:00,
2013-02-15 03:08:00,34.2,28.0,30.11,NNW,335,11.0,12.0,79,0.00,,,0.00,weatherlink.com 1.10,2013-02-15 09:08:00,
2013-02-15 03:23:00,33.6,28.0,30.11,NNW,340,6.0,12.0,81,0.00,,,0.00,weatherlink.com 1.10,2013-02-15 09:23:00,
2013-02-15 03:38:00,33.3,28.0,30.12,North,356,8.0,11.0,82,0.00,,,0.00,weatherlink.com 1.10,2013-02-15 09:38:00,
2013-02-15 03:53:00,32.8,28.0,30.12,North,356,4.0,12.0,82,0.00,,,0.00,weatherlink.com 1.10,2013-02-15 09:53:00,
2013-02-15 04:08:00,32.4,28.0,30.13,NW,326,4.0,9.0,83,0.00,,,0.00,weatherlink.com 1.10,2013-02-15 10:08:00,
2013-02-15 04:23:00,32.2,28.0,30.14,NNW,335,3.0,8.0,83,0.00,,,0.00,weatherlink.com 1.10,2013-02-15 10:23:00,
2013-02-15 04:38:00,31.8,27.0,30.14,NNW,339,4.0,6.0,83,0.00,,,0.00,weatherlink.com 1.10,2013-02-15 10:38:00,
2013-02-15 04:53:00,31.6,27.0,30.14,NNW,333,3.0,7.0,83,0.00,,,0.00,weatherlink.com 1.10,2013-02-15 10:53:00,
2013-02-15 05:08:00,31.6,27.0,30.15,NNW,329,6.0,11.0,83,0.00,,,0.00,weatherlink.com 1.10,2013-02-15 11:08:00,
2013-02-15 05:24:00,31.4,26.0,30.16,NNW,344,5.0,12.0,80,0.00,,,0.00,weatherlink.com 1.10,2013-02-15 11:24:00,
2013-02-15 05:38:00,30.7,25.0,30.16,NNW,339,4.0,17.0,79,0.00,,,0.00,weatherlink.com 1.10,2013-02-15 11:38:00,
2013-02-15 05:53:00,30.4,25.0,30.17,NNE,19,7.0,15.0,80,0.00,,,0.00,weatherlink.com 1.10,2013-02-15 11:53:00,
2013-02-15 06:09:00,30.5,25.0,30.18,NNW,339,13.0,14.0,80,0.00,,,0.00,weatherlink.com 1.10,2013-02-15 12:09:00,
2013-02-15 06:23:00,30.4,24.0,30.19,NNW,333,12.0,18.0,77,0.00,,,0.00,weatherlink.com 1.10,2013-02-15 12:23:00,
2013-02-15 06:38:00,29.3,22.0,30.20,NW,317,5.0,19.0,75,0.00,,,0.00,weatherlink.com 1.10,2013-02-15 12:38:00,
2013-02-15 06:54:00,28.3,21.0,30.21,NW,326,13.0,18.0,74,0.00,,,0.00,weatherlink.com 1.10,2013-02-15 12:54:00,
2013-02-15 07:09:00,27.8,21.0,30.22,NNW,344,15.0,20.0,77,0.00,,,0.00,weatherlink.com 1.10,2013-02-15 13:09:00,
2013-02-15 07:24:00,27.9,22.0,30.22,NNW,347,5.0,16.0,78,0.00,,,0.00,weatherlink.com 1.10,2013-02-15 13:24:00,
2013-02-15 07:39:00,27.8,21.0,30.23,NNW,348,16.0,18.0,75,0.00,,,0.00,weatherlink.com 1.10,2013-02-15 13:39:00,
2013-02-15 07:54:00,27.6,20.0,30.24,NW,318,7.0,18.0,73,0.00,,,0.00,weatherlink.com 1.10,2013-02-15 13:54:00,
2013-02-15 08:09:00,27.3,19.0,30.25,NW,312,8.0,18.0,72,0.00,,,0.00,weatherlink.com 1.10,2013-02-15 14:09:00,
2013-02-15 08:24:00,27.7,18.0,30.26,NW,325,7.0,16.0,68,0.00,,,0.00,weatherlink.com 1.10,2013-02-15 14:24:00,
2013-02-15 08:39:00,28.1,18.0,30.27,NNE,20,7.0,20.0,66,0.00,,,0.00,weatherlink.com 1.10,2013-02-15 14:39:00,
2013-02-15 08:54:00,29.0,19.0,30.27,NNE,24,9.0,15.0,66,0.00,,,0.00,weatherlink.com 1.10,2013-02-15 14:54:00,
2013-02-15 09:09:00,28.9,17.0,30.27,NW,313,11.0,19.0,62,0.00,,,0.00,weatherlink.com 1.10,2013-02-15 15:09:00,
2013-02-15 09:24:00,29.1,16.0,30.27,NNE,25,14.0,21.0,58,0.00,,,0.00,weatherlink.com 1.10,2013-02-15 15:24:00,
2013-02-15 09:39:00,29.9,17.0,30.28,North,356,7.0,15.0,59,0.00,,,0.00,weatherlink.com 1.10,2013-02-15 15:39:00,
2013-02-15 09:54:00,30.3,17.0,30.28,NNW,331,14.0,19.0,58,0.00,,,0.00,weatherlink.com 1.10,2013-02-15 15:54:00,
2013-02-15 10:09:00,30.6,16.0,30.28,North,360,9.0,15.0,56,0.00,,,0.00,weatherlink.com 1.10,2013-02-15 16:09:00,
2013-02-15 10:24:00,30.9,17.0,30.28,NNE,13,6.0,17.0,56,0.00,,,0.00,weatherlink.com 1.10,2013-02-15 16:24:00,
2013-02-15 10:39:00,31.3,17.0,30.28,North,354,9.0,14.0,55,0.00,,,0.00,weatherlink.com 1.10,2013-02-15 16:39:00,
2013-02-15 10:54:00,31.7,16.0,30.28,NW,322,6.0,17.0,53,0.00,,,0.00,weatherlink.com 1.10,2013-02-15 16:54:00,
2013-02-15 11:09:00,32.1,16.0,30.28,North,356,5.0,17.0,52,0.00,,,0.00,weatherlink.com 1.10,2013-02-15 17:09:00,
2013-02-15 11:24:00,32.9,18.0,30.28,NNW,329,7.0,11.0,55,0.00,,,0.00,weatherlink.com 1.10,2013-02-15 17:24:00,
2013-02-15 11:39:00,33.1,16.0,30.28,NNW,333,11.0,11.0,50,0.00,,,0.00,weatherlink.com 1.10,2013-02-15 17:39:00,
2013-02-15 11:54:00,33.5,16.0,30.28,NNE,20,9.0,15.0,49,0.00,,,0.00,weatherlink.com 1.10,2013-02-15 17:54:00,
2013-02-15 12:09:00,34.3,17.0,30.27,NE,56,5.0,12.0,50,0.00,,,0.00,weatherlink.com 1.10,2013-02-15 18:09:00,
2013-02-15 12:24:00,34.3,15.0,30.27,North,1,6.0,14.0,45,0.00,,,0.00,weatherlink.com 1.10,2013-02-15 18:24:00,
2013-02-15 12:40:00,34.6,16.0,30.26,NW,317,3.0,17.0,46,0.00,,,0.00,weatherlink.com 1.10,2013-02-15 18:40:00,
2013-02-15 12:54:00,35.4,17.0,30.25,NNW,345,10.0,14.0,47,0.00,,,0.00,weatherlink.com 1.10,2013-02-15 18:54:00,
2013-02-15 13:10:00,35.7,16.0,30.25,NW,309,8.0,15.0,45,0.00,,,0.00,weatherlink.com 1.10,2013-02-15 19:10:00,
2013-02-15 13:24:00,35.7,16.0,30.24,NNW,335,11.0,15.0,45,0.00,,,0.00,weatherlink.com 1.10,2013-02-15 19:24:00,
2013-02-15 13:39:00,35.8,16.0,30.24,NE,36,6.0,14.0,45,0.00,,,0.00,weatherlink.com 1.10,2013-02-15 19:39:00,
2013-02-15 13:54:00,36.9,18.0,30.24,North,358,8.0,10.0,47,0.00,,,0.00,weatherlink.com 1.10,2013-02-15 19:54:00,
2013-02-15 14:09:00,37.0,16.0,30.24,NNE,14,8.0,13.0,42,0.00,,,0.00,weatherlink.com 1.10,2013-02-15 20:09:00,
2013-02-15 14:24:00,37.2,16.0,30.24,NNW,338,6.0,10.0,43,0.00,,,0.00,weatherlink.com 1.10,2013-02-15 20:24:00,
2013-02-15 14:39:00,37.3,17.0,30.23,NNW,347,4.0,12.0,44,0.00,,,0.00,weatherlink.com 1.10,2013-02-15 20:39:00,
2013-02-15 14:55:00,37.2,16.0,30.23,NNE,22,8.0,11.0,43,0.00,,,0.00,weatherlink.com 1.10,2013-02-15 20:55:00,
2013-02-15 15:09:00,37.4,17.0,30.23,NNW,346,3.0,9.0,43,0.00,,,0.00,weatherlink.com 1.10,2013-02-15 21:09:00,
2013-02-15 15:24:00,37.5,16.0,30.23,North,358,4.0,12.0,42,0.00,,,0.00,weatherlink.com 1.10,2013-02-15 21:24:00,
2013-02-15 15:39:00,37.7,17.0,30.23,NNE,13,3.0,10.0,43,0.00,,,0.00,weatherlink.com 1.10,2013-02-15 21:39:00,
2013-02-15 15:55:00,37.8,17.0,30.23,NNW,339,3.0,7.0,43,0.00,,,0.00,weatherlink.com 1.10,2013-02-15 21:55:00,
2013-02-15 16:10:00,38.0,16.0,30.23,NNW,344,2.0,6.0,41,0.00,,,0.00,weatherlink.com 1.10,2013-02-15 22:10:00,
2013-02-15 16:25:00,37.5,14.0,30.23,NNW,332,10.0,14.0,39,0.00,,,0.00,weatherlink.com 1.10,2013-02-15 22:25:00,
2013-02-15 16:40:00,37.1,15.0,30.23,NNW,336,9.0,13.0,41,0.00,,,0.00,weatherlink.com 1.10,2013-02-15 22:40:00,
2013-02-15 16:55:00,36.4,16.0,30.23,NNW,337,3.0,10.0,43,0.00,,,0.00,weatherlink.com 1.10,2013-02-15 22:55:00,
2013-02-15 17:10:00,35.7,16.0,30.24,NNW,330,4.0,8.0,44,0.00,,,0.00,weatherlink.com 1.10,2013-02-15 23:10:00,
2013-02-15 17:25:00,35.2,16.0,30.24,North,358,7.0,7.0,46,0.00,,,0.00,weatherlink.com 1.10,2013-02-15 23:25:00,
2013-02-15 17:40:00,34.8,16.0,30.24,NW,323,4.0,8.0,46,0.00,,,0.00,weatherlink.com 1.10,2013-02-15 23:40:00,
2013-02-15 17:55:00,34.5,15.0,30.24,WNW,300,4.0,8.0,45,0.00,,,0.00,weatherlink.com 1.10,2013-02-15 23:55:00,
2013-02-15 18:10:00,34.0,16.0,30.24,NNW,333,1.0,8.0,47,0.00,,,0.00,weatherlink.com 1.10,2013-02-16 00:10:00,
2013-02-15 18:25:00,33.5,16.0,30.25,WNW,298,1.0,4.0,48,0.00,,,0.00,weatherlink.com 1.10,2013-02-16 00:25:00,
2013-02-15 18:40:00,33.3,15.0,30.24,NW,326,2.0,5.0,48,0.00,,,0.00,weatherlink.com 1.10,2013-02-16 00:40:00,
2013-02-15 18:55:00,33.2,16.0,30.24,NW,315,1.0,4.0,49,0.00,,,0.00,weatherlink.com 1.10,2013-02-16 00:55:00,
2013-02-15 19:10:00,33.2,16.0,30.24,NNW,339,0.0,3.0,50,0.00,,,0.00,weatherlink.com 1.10,2013-02-16 01:10:00,
2013-02-15 19:25:00,32.6,17.0,30.24,WNW,287,0.0,2.0,52,0.00,,,0.00,weatherlink.com 1.10,2013-02-16 01:25:00,
2013-02-15 19:40:00,32.3,17.0,30.24,WNW,288,1.0,1.0,53,0.00,,,0.00,weatherlink.com 1.10,2013-02-16 01:40:00,
2013-02-15 19:55:00,32.4,17.0,30.24,NW,308,0.0,2.0,54,0.00,,,0.00,weatherlink.com 1.10,2013-02-16 01:55:00,
2013-02-15 20:11:00,33.0,17.0,30.24,WNW,293,11.0,12.0,51,0.00,,,0.00,weatherlink.com 1.10,2013-02-16 02:11:00,
2013-02-15 20:25:00,33.5,17.0,30.25,NW,323,9.0,14.0,50,0.00,,,0.00,weatherlink.com 1.10,2013-02-16 02:25:00,
2013-02-15 20:40:00,33.4,16.0,30.25,North,354,4.0,14.0,50,0.00,,,0.00,weatherlink.com 1.10,2013-02-16 02:40:00,
2013-02-15 20:55:00,32.7,18.0,30.25,NNE,29,6.0,15.0,54,0.00,,,0.00,weatherlink.com 1.10,2013-02-16 02:55:00,
2013-02-15 21:10:00,31.6,18.0,30.26,North,4,8.0,16.0,58,0.00,,,0.00,weatherlink.com 1.10,2013-02-16 03:10:00,
2013-02-15 21:25:00,30.9,18.0,30.26,NW,326,5.0,18.0,59,0.00,,,0.00,weatherlink.com 1.10,2013-02-16 03:25:00,
2013-02-15 21:40:00,30.5,18.0,30.26,NNE,27,9.0,12.0,60,0.00,,,0.00,weatherlink.com 1.10,2013-02-16 03:40:00,
2013-02-15 21:55:00,30.2,18.0,30.26,NW,323,9.0,12.0,61,0.00,,,0.00,weatherlink.com 1.10,2013-02-16 03:55:00,
2013-02-15 22:10:00,29.6,18.0,30.26,NNW,340,5.0,9.0,63,0.00,,,0.00,weatherlink.com 1.10,2013-02-16 04:10:00,
2013-02-15 22:25:00,29.2,18.0,30.25,NE,51,3.0,12.0,64,0.00,,,0.00,weatherlink.com 1.10,2013-02-16 04:25:00,
2013-02-15 22:40:00,28.1,17.0,30.26,NNW,344,4.0,8.0,63,0.00,,,0.00,weatherlink.com 1.10,2013-02-16 04:40:00,
2013-02-15 22:55:00,27.7,17.0,30.25,NNE,30,4.0,11.0,64,0.00,,,0.00,weatherlink.com 1.10,2013-02-16 04:55:00,
2013-02-15 23:10:00,27.4,17.0,30.25,NNW,347,2.0,10.0,64,0.00,,,0.00,weatherlink.com 1.10,2013-02-16 05:10:00,
2013-02-15 23:25:00,26.9,17.0,30.25,North,8,2.0,7.0,65,0.00,,,0.00,weatherlink.com 1.10,2013-02-16 05:25:00,
2013-02-15 23:40:00,26.2,16.0,30.25,North,1,0.0,5.0,65,0.00,,,0.00,weatherlink.com 1.10,2013-02-16 05:40:00,
2013-02-15 23:55:00,26.2,17.0,30.25,NNE,26,3.0,7.0,67,0.00,,,0.00,weatherlink.com 1.10,2013-02-16 05:55:00,